,,,PA_Meas_PMT16A,,PR_Meas_QMR101_102,,RH_Meas_QMH101,,SR_Meas_QMS101,,TA_Meas_QMH101,,GenWind,,GenWind,
date,time,status,PA,status,PR,status,RH,status,SR,status,TA,status,DirAvg,status,SpdAvg,
2012-03-21, 00:00:05,VALID,1004.71,VALID,0,VALID,85.5579,VALID,0,VALID,25.9992,VALID,198,VALID,0.539453,
2012-03-21, 00:01:05,VALID,1004.62,VALID,0,VALID,86.1148,VALID,0.0815089,VALID,26.0576,VALID,301,VALID,1.00078,
2012-03-21, 00:02:05,VALID,1004.65,VALID,0,VALID,86.3208,VALID,0,VALID,26.0576,VALID,266,VALID,0.819531,
2012-03-21, 00:03:05,VALID,1004.65,VALID,0,VALID,86.6107,VALID,0.0815089,VALID,26.0966,VALID,290,VALID,1.23008,
2012-03-21, 00:04:05,VALID,1004.69,VALID,0,VALID,87.5338,VALID,0,VALID,26.116,VALID,274,VALID,0.928125,
2012-03-21, 00:05:05,VALID,1004.69,VALID,0,VALID,88.0068,VALID,0,VALID,26.155,VALID,268,VALID,1.15234,
2012-03-21, 00:06:05,VALID,1004.72,VALID,0,VALID,88.3043,VALID,0.0815089,VALID,26.1745,VALID,230,VALID,0.774219,
2012-03-21, 00:07:05,VALID,1004.87,VALID,0,VALID,88.2204,VALID,0,VALID,26.2154,VALID,278,VALID,0.775391,
2012-03-21, 00:08:05,VALID,1004.91,VALID,0,VALID,86.8777,VALID,0,VALID,26.1959,VALID,252,VALID,2.19922,
2012-03-21, 00:09:05,VALID,1004.97,VALID,0,VALID,84.8179,VALID,0,VALID,26.0576,VALID,247,VALID,3.24062,
2012-03-21, 00:10:05,VALID,1005.03,VALID,0,VALID,85.9851,VALID,0,VALID,25.8434,VALID,309,VALID,1.16562,
2012-03-21, 00:11:05,VALID,1005.15,VALID,0,VALID,86.7404,VALID,0,VALID,25.6681,VALID,263,VALID,2.76016,
2012-03-21, 00:12:05,VALID,1005.24,VALID,1,VALID,88.5942,VALID,0.0815089,VALID,25.4344,VALID,272,VALID,1.95938,
2012-03-21, 00:13:05,VALID,1005.22,VALID,1,VALID,90.5243,VALID,0,VALID,25.1813,VALID,252,VALID,3.26914,
2012-03-21, 00:14:05,VALID,1005.22,VALID,1,VALID,91.9738,VALID,0,VALID,25.0274,VALID,252,VALID,1.61523,
2012-03-21, 00:15:05,VALID,1005.22,VALID,0.5,VALID,92.9274,VALID,0,VALID,24.9282,VALID,298,VALID,1.15508,
2012-03-21, 00:16:05,VALID,1005.37,VALID,1,VALID,93.1257,VALID,0,VALID,24.8522,VALID,259,VALID,4.94258,
2012-03-21, 00:17:05,VALID,1005.37,VALID,2.5,VALID,92.5917,VALID,0.0815089,VALID,24.6166,VALID,326,VALID,4.30156,
2012-03-21, 00:18:05,VALID,1005.26,VALID,2,VALID,92.8435,VALID,0,VALID,24.3459,VALID,2,VALID,2.9,
2012-03-21, 00:19:05,VALID,1005.29,VALID,0.5,VALID,92.8053,VALID,0,VALID,24.0716,VALID,352,VALID,3.58203,
2012-03-21, 00:20:05,VALID,1005.34,VALID,1.5,VALID,93.5148,VALID,0,VALID,23.8769,VALID,344,VALID,1.78398,
2012-03-21, 00:21:05,VALID,1005.42,VALID,1.5,VALID,93.9725,VALID,0.0815089,VALID,23.7796,VALID,292,VALID,2.15,
2012-03-21, 00:22:05,VALID,1005.23,VALID,1,VALID,94.3082,VALID,0,VALID,23.7389,VALID,312,VALID,1.63437,
2012-03-21, 00:23:05,VALID,1005.18,VALID,1,VALID,94.56,VALID,0.0815089,VALID,23.7212,VALID,293,VALID,1.90703,
2012-03-21, 00:24:05,VALID,1005.17,VALID,1,VALID,94.7888,VALID,0,VALID,23.7407,VALID,307,VALID,2.82461,
2012-03-21, 00:25:05,VALID,1005.22,VALID,1.5,VALID,94.9338,VALID,0.0815089,VALID,23.7796,VALID,257,VALID,1.12227,
2012-03-21, 00:26:05,VALID,1005.25,VALID,1,VALID,95.0558,VALID,0.0815089,VALID,23.838,VALID,245,VALID,1.72266,
2012-03-21, 00:27:05,VALID,1005.28,VALID,1,VALID,95.1627,VALID,0.0815089,VALID,23.9159,VALID,304,VALID,1.82187,
2012-03-21, 00:28:05,VALID,1005.3,VALID,1,VALID,95.2008,VALID,0.0815089,VALID,23.9335,VALID,282,VALID,1.7457,
2012-03-21, 00:29:05,VALID,1005.33,VALID,1,VALID,95.2008,VALID,0.0815089,VALID,24.0132,VALID,260,VALID,1.76211,
2012-03-21, 00:30:05,VALID,1005.28,VALID,1,VALID,95.2618,VALID,0.0815089,VALID,24.0521,VALID,274,VALID,1.62188,
2012-03-21, 00:31:05,VALID,1005.25,VALID,1,VALID,95.2695,VALID,0,VALID,24.0929,VALID,300,VALID,2.43828,
2012-03-21, 00:32:05,VALID,1005.33,VALID,0.5,VALID,95.2695,VALID,0,VALID,24.0697,VALID,286,VALID,2.17852,
2012-03-21, 00:33:05,VALID,1005.31,VALID,1,VALID,95.2161,VALID,0,VALID,24.0716,VALID,251,VALID,2.39883,
2012-03-21, 00:34:05,VALID,1005.36,VALID,0.5,VALID,94.7965,VALID,0.0815089,VALID,23.7212,VALID,235,VALID,4.05859,
2012-03-21, 00:35:05,VALID,1005.3,VALID,0.5,VALID,94.6897,VALID,0,VALID,23.5053,VALID,259,VALID,2.91797,
2012-03-21, 00:36:05,VALID,1005.38,VALID,0.5,VALID,94.6363,VALID,0,VALID,23.3904,VALID,244,VALID,2.02227,
2012-03-21, 00:37:04,VALID,1005.4,VALID,0.5,VALID,94.682,VALID,0.0815089,VALID,23.2541,VALID,281,VALID,1.65703,
2012-03-21, 00:38:04,VALID,1005.36,VALID,0,VALID,94.6134,VALID,0,VALID,23.1197,VALID,278,VALID,1.1957,
2012-03-21, 00:39:04,VALID,1005.33,VALID,0.5,VALID,94.4227,VALID,0.0815089,VALID,22.9233,VALID,245,VALID,1.82734,
2012-03-21, 00:40:04,VALID,1005.29,VALID,0,VALID,94.5829,VALID,0,VALID,22.8083,VALID,133,VALID,0.651172,
2012-03-21, 00:41:04,VALID,1005.3,VALID,0,VALID,94.8194,VALID,0,VALID,22.7287,VALID,203,VALID,0.772266,
2012-03-21, 00:42:04,VALID,1005.34,VALID,0.5,VALID,95.0101,VALID,0,VALID,22.7499,VALID,251,VALID,1.66367,
2012-03-21, 00:43:04,VALID,1005.32,VALID,0,VALID,95.1093,VALID,0,VALID,22.7287,VALID,294,VALID,0.545313,
2012-03-21, 00:44:04,VALID,1005.37,VALID,0,VALID,95.2161,VALID,0,VALID,22.7287,VALID,219,VALID,0.830859,
2012-03-21, 00:45:04,VALID,1005.41,VALID,0.5,VALID,95.2923,VALID,0,VALID,22.7677,VALID,224,VALID,1.0543,
2012-03-21, 00:46:04,VALID,1005.36,VALID,0,VALID,95.3457,VALID,0,VALID,22.7677,VALID,269,VALID,1.74375,
2012-03-21, 00:47:04,VALID,1005.37,VALID,0.5,VALID,95.422,VALID,0,VALID,22.8066,VALID,320,VALID,1.1418,
2012-03-21, 00:48:04,VALID,1005.4,VALID,0,VALID,95.3915,VALID,0,VALID,22.826,VALID,213,VALID,2.07695,
2012-03-21, 00:49:04,VALID,1005.45,VALID,0.5,VALID,95.4373,VALID,0,VALID,22.8066,VALID,262,VALID,0.477734,
2012-03-21, 00:50:04,VALID,1005.5,VALID,0,VALID,95.4831,VALID,0,VALID,22.8649,VALID,243,VALID,1.20508,
2012-03-21, 00:51:04,VALID,1005.52,VALID,0,VALID,95.4983,VALID,0,VALID,22.9039,VALID,273,VALID,1.675,
2012-03-21, 00:52:04,VALID,1005.55,VALID,0,VALID,95.5136,VALID,0,VALID,22.9622,VALID,281,VALID,0.921875,
2012-03-21, 00:53:04,VALID,1005.59,VALID,0,VALID,95.5365,VALID,0,VALID,23.0012,VALID,353,VALID,0.805078,
2012-03-21, 00:54:04,VALID,1005.6,VALID,0.5,VALID,95.5365,VALID,0,VALID,23.0206,VALID,271,VALID,1.07383,
2012-03-21, 00:55:04,VALID,1005.53,VALID,0,VALID,95.5212,VALID,0,VALID,23.0807,VALID,187,VALID,0.932422,
2012-03-21, 00:56:04,VALID,1005.51,VALID,0,VALID,95.5212,VALID,0,VALID,23.0401,VALID,240,VALID,1.73711,
2012-03-21, 00:57:04,VALID,1005.38,VALID,0.5,VALID,95.5594,VALID,0,VALID,23.079,VALID,239,VALID,2.13438,
2012-03-21, 00:58:04,VALID,1005.45,VALID,0,VALID,95.567,VALID,0,VALID,23.1179,VALID,248,VALID,1.51133,
2012-03-21, 00:59:04,VALID,1005.48,VALID,0,VALID,95.5441,VALID,0,VALID,23.1374,VALID,72,VALID,0.5625,
2012-03-21, 01:00:04,VALID,1005.46,VALID,0.5,VALID,95.5822,VALID,0,VALID,23.1586,VALID,277,VALID,1.36797,
2012-03-21, 01:01:04,VALID,1005.38,VALID,1,VALID,95.4449,VALID,0,VALID,23.0401,VALID,263,VALID,2.37656,
2012-03-21, 01:02:04,VALID,1005.25,VALID,0.5,VALID,95.3763,VALID,0,VALID,22.9233,VALID,325,VALID,1.48633,
2012-03-21, 01:03:04,VALID,1005.21,VALID,0,VALID,95.3,VALID,0,VALID,22.7677,VALID,175,VALID,0.580469,
2012-03-21, 01:04:04,VALID,1005.11,VALID,0.5,VALID,95.3229,VALID,0,VALID,22.711,VALID,285,VALID,1.18281,
2012-03-21, 01:05:04,VALID,1005.07,VALID,0,VALID,95.2923,VALID,0,VALID,22.5925,VALID,273,VALID,0.876953,
2012-03-21, 01:06:04,VALID,1005.04,VALID,0,VALID,95.3076,VALID,0,VALID,22.5536,VALID,311,VALID,1.1043,
2012-03-21, 01:07:04,VALID,1005.01,VALID,0,VALID,95.3381,VALID,0.0815089,VALID,22.4953,VALID,272,VALID,0.948828,
2012-03-21, 01:08:04,VALID,1005.06,VALID,0.5,VALID,95.3,VALID,0,VALID,22.4157,VALID,273,VALID,1.75977,
2012-03-21, 01:09:04,VALID,1005.01,VALID,0,VALID,95.3076,VALID,0,VALID,22.3802,VALID,309,VALID,1.02109,
2012-03-21, 01:10:04,VALID,1005,VALID,0.5,VALID,95.3686,VALID,0,VALID,22.3591,VALID,293,VALID,1.2918,
2012-03-21, 01:11:04,VALID,1004.94,VALID,0,VALID,95.4144,VALID,0,VALID,22.3202,VALID,351,VALID,1.09375,
2012-03-21, 01:12:04,VALID,1004.84,VALID,0.5,VALID,95.4373,VALID,0,VALID,22.3396,VALID,274,VALID,0.994531,
2012-03-21, 01:13:04,VALID,1004.73,VALID,0,VALID,95.4602,VALID,0,VALID,22.2796,VALID,281,VALID,0.566797,
2012-03-21, 01:14:04,VALID,1004.66,VALID,0.5,VALID,95.4831,VALID,0,VALID,22.2812,VALID,261,VALID,0.271484,
2012-03-21, 01:15:04,VALID,1004.6,VALID,0,VALID,95.5517,VALID,0,VALID,22.3218,VALID,279,VALID,0.326562,
2012-03-21, 01:16:04,VALID,1004.56,VALID,0,VALID,95.5365,VALID,0,VALID,22.3396,VALID,316,VALID,0.2625,
2012-03-21, 01:17:04,VALID,1004.6,VALID,0,VALID,95.5594,VALID,0,VALID,22.3396,VALID,296,VALID,0.58125,
2012-03-21, 01:18:04,VALID,1004.64,VALID,0,VALID,95.6204,VALID,0,VALID,22.3396,VALID,296,VALID,0.46875,
2012-03-21, 01:19:04,VALID,1004.71,VALID,0,VALID,95.6204,VALID,0,VALID,22.3379,VALID,341,VALID,0.709375,
2012-03-21, 01:20:04,VALID,1004.78,VALID,0,VALID,95.6204,VALID,0,VALID,22.398,VALID,314,VALID,0.406641,
2012-03-21, 01:21:04,VALID,1004.8,VALID,0,VALID,95.6433,VALID,0,VALID,22.4174,VALID,347,VALID,0.516406,
2012-03-21, 01:22:04,VALID,1004.8,VALID,0,VALID,95.6509,VALID,0,VALID,22.4369,VALID,317,VALID,0.694141,
2012-03-21, 01:23:04,VALID,1004.77,VALID,0,VALID,95.628,VALID,0,VALID,22.3785,VALID,289,VALID,0.603516,
2012-03-21, 01:24:04,VALID,1004.74,VALID,0,VALID,95.6509,VALID,0,VALID,22.3785,VALID,289,VALID,0.0253906,
2012-03-21, 01:25:04,VALID,1004.68,VALID,0.5,VALID,95.6509,VALID,0,VALID,22.3768,VALID,354,VALID,0.528516,
2012-03-21, 01:26:04,VALID,1004.67,VALID,0,VALID,95.6585,VALID,0,VALID,22.3785,VALID,354,VALID,0.492188,
2012-03-21, 01:27:04,VALID,1004.63,VALID,0,VALID,95.6585,VALID,0,VALID,22.3591,VALID,354,VALID,0.389453,
2012-03-21, 01:28:04,VALID,1004.59,VALID,0,VALID,95.6509,VALID,0,VALID,22.3396,VALID,350,VALID,0.290234,
2012-03-21, 01:29:04,VALID,1004.55,VALID,0,VALID,95.6814,VALID,0,VALID,22.3591,VALID,355,VALID,0.620313,
2012-03-21, 01:30:04,VALID,1004.58,VALID,0,VALID,95.689,VALID,0,VALID,22.398,VALID,280,VALID,0.373047,
2012-03-21, 01:31:04,VALID,1004.56,VALID,0,VALID,95.7043,VALID,0,VALID,22.4174,VALID,290,VALID,0.632813,
2012-03-21, 01:32:04,VALID,1004.55,VALID,0,VALID,95.7119,VALID,0,VALID,22.4174,VALID,298,VALID,1.16055,
2012-03-21, 01:33:04,VALID,1004.51,VALID,0,VALID,95.6967,VALID,0.0815089,VALID,22.3768,VALID,295,VALID,1.07344,
2012-03-21, 01:34:04,VALID,1004.48,VALID,0,VALID,95.6967,VALID,0,VALID,22.398,VALID,298,VALID,0.732422,
2012-03-21, 01:35:04,VALID,1004.49,VALID,0.5,VALID,95.7196,VALID,0,VALID,22.4369,VALID,311,VALID,0.403906,
2012-03-21, 01:36:04,VALID,1004.51,VALID,0,VALID,95.7424,VALID,0,VALID,22.4546,VALID,320,VALID,0.255859,
2012-03-21, 01:37:04,VALID,1004.51,VALID,0,VALID,95.7348,VALID,0,VALID,22.4953,VALID,312,VALID,0.0328125,
2012-03-21, 01:38:04,VALID,1004.52,VALID,0,VALID,95.7424,VALID,0,VALID,22.5147,VALID,345,VALID,0.558594,
2012-03-21, 01:39:04,VALID,1004.52,VALID,0,VALID,95.7272,VALID,0.0815089,VALID,22.5147,VALID,346,VALID,0.863672,
2012-03-21, 01:40:04,VALID,1004.5,VALID,0,VALID,95.6967,VALID,0,VALID,22.4546,VALID,292,VALID,0.746484,
2012-03-21, 01:41:04,VALID,1004.5,VALID,0,VALID,95.7119,VALID,0,VALID,22.4546,VALID,311,VALID,0.573438,
2012-03-21, 01:42:04,VALID,1004.45,VALID,0,VALID,95.7119,VALID,0,VALID,22.4352,VALID,294,VALID,1.30664,
2012-03-21, 01:43:04,VALID,1004.4,VALID,0,VALID,95.7196,VALID,0,VALID,22.4157,VALID,278,VALID,0.878906,
2012-03-21, 01:44:04,VALID,1004.34,VALID,0,VALID,95.7348,VALID,0,VALID,22.4352,VALID,273,VALID,0.269141,
2012-03-21, 01:45:04,VALID,1004.29,VALID,0,VALID,95.7348,VALID,0,VALID,22.4563,VALID,273,VALID,0.0359375,
2012-03-21, 01:46:04,VALID,1004.21,VALID,0,VALID,95.7501,VALID,0,VALID,22.4953,VALID,273,VALID,0.178906,
2012-03-21, 01:47:04,VALID,1004.15,VALID,0,VALID,95.7577,VALID,0,VALID,22.5342,VALID,284,VALID,0.0257812,
2012-03-21, 01:48:04,VALID,1004.11,VALID,0,VALID,95.7577,VALID,0,VALID,22.5342,VALID,284,VALID,0,
2012-03-21, 01:49:04,VALID,1004.06,VALID,0,VALID,95.7348,VALID,0,VALID,22.5342,VALID,285,VALID,0.178125,
2012-03-21, 01:50:04,VALID,1004.06,VALID,0,VALID,95.7272,VALID,0,VALID,22.5553,VALID,285,VALID,0.305469,
2012-03-21, 01:51:04,VALID,1004.06,VALID,0,VALID,95.7196,VALID,0,VALID,22.4758,VALID,285,VALID,0.153906,
2012-03-21, 01:52:04,VALID,1004.07,VALID,0.5,VALID,95.7501,VALID,0,VALID,22.4741,VALID,285,VALID,0.278125,
2012-03-21, 01:53:04,VALID,1004.04,VALID,0,VALID,95.7424,VALID,0,VALID,22.4953,VALID,285,VALID,0,
2012-03-21, 01:54:04,VALID,1004.09,VALID,0,VALID,95.7577,VALID,0.0815089,VALID,22.4936,VALID,285,VALID,0.257422,
2012-03-21, 01:55:04,VALID,1004.06,VALID,0,VALID,95.773,VALID,0,VALID,22.5147,VALID,285,VALID,0.225,
2012-03-21, 01:56:04,VALID,1004.08,VALID,0,VALID,95.7577,VALID,0,VALID,22.5325,VALID,286,VALID,0.514453,
2012-03-21, 01:57:04,VALID,1004.08,VALID,0,VALID,95.7882,VALID,0,VALID,22.5519,VALID,325,VALID,0.515625,
2012-03-21, 01:58:04,VALID,1004.05,VALID,0,VALID,95.7653,VALID,0,VALID,22.5325,VALID,326,VALID,0.275781,
2012-03-21, 01:59:04,VALID,1004.02,VALID,0,VALID,95.7577,VALID,0,VALID,22.513,VALID,327,VALID,0.521094,
2012-03-21, 02:00:04,VALID,1004.02,VALID,0,VALID,95.7653,VALID,0,VALID,22.5147,VALID,327,VALID,0.311719,
2012-03-21, 02:01:04,VALID,1003.94,VALID,0,VALID,95.7577,VALID,0,VALID,22.513,VALID,327,VALID,0.269922,
2012-03-21, 02:02:04,VALID,1003.94,VALID,0,VALID,95.7806,VALID,0,VALID,22.5342,VALID,332,VALID,0.523438,
2012-03-21, 02:03:04,VALID,1003.92,VALID,0,VALID,95.7577,VALID,0,VALID,22.5536,VALID,348,VALID,0.6625,
2012-03-21, 02:04:04,VALID,1003.86,VALID,0,VALID,95.7882,VALID,0,VALID,22.5342,VALID,347,VALID,0.205469,
2012-03-21, 02:05:04,VALID,1003.87,VALID,0,VALID,95.7806,VALID,0,VALID,22.5731,VALID,347,VALID,0,
2012-03-21, 02:06:04,VALID,1003.86,VALID,0,VALID,95.8111,VALID,0,VALID,22.6315,VALID,346,VALID,0.170312,
2012-03-21, 02:07:04,VALID,1003.78,VALID,0,VALID,95.8187,VALID,0,VALID,22.6297,VALID,345,VALID,0.0128906,
2012-03-21, 02:08:04,VALID,1003.81,VALID,0,VALID,95.8035,VALID,0,VALID,22.6297,VALID,345,VALID,0.448438,
2012-03-21, 02:09:04,VALID,1003.8,VALID,0,VALID,95.7806,VALID,0.0815089,VALID,22.6509,VALID,334,VALID,0.723047,
2012-03-21, 02:10:04,VALID,1003.82,VALID,0,VALID,95.7653,VALID,0,VALID,22.6297,VALID,354,VALID,0.444922,
2012-03-21, 02:11:04,VALID,1003.81,VALID,0,VALID,95.7806,VALID,0.0815089,VALID,22.6297,VALID,353,VALID,0.592969,
2012-03-21, 02:12:04,VALID,1003.81,VALID,0,VALID,95.7806,VALID,0,VALID,22.6509,VALID,359,VALID,0.574609,
2012-03-21, 02:13:04,VALID,1003.8,VALID,0,VALID,95.7882,VALID,0.0815089,VALID,22.6492,VALID,358,VALID,0.551172,
2012-03-21, 02:14:04,VALID,1003.79,VALID,0,VALID,95.7653,VALID,0.0815089,VALID,22.6297,VALID,359,VALID,0.857813,
2012-03-21, 02:15:04,VALID,1003.76,VALID,0,VALID,95.7959,VALID,0,VALID,22.6509,VALID,358,VALID,0.884766,
2012-03-21, 02:16:04,VALID,1003.72,VALID,0,VALID,95.773,VALID,0.0815089,VALID,22.6297,VALID,350,VALID,0.292578,
2012-03-21, 02:17:04,VALID,1003.7,VALID,0,VALID,95.7959,VALID,0.0815089,VALID,22.6492,VALID,351,VALID,0.739062,
2012-03-21, 02:18:04,VALID,1003.67,VALID,0.5,VALID,95.7882,VALID,0,VALID,22.6297,VALID,356,VALID,0.6625,
2012-03-21, 02:19:04,VALID,1003.7,VALID,0,VALID,95.773,VALID,0.0815089,VALID,22.6492,VALID,351,VALID,0.182422,
2012-03-21, 02:20:04,VALID,1003.71,VALID,0,VALID,95.8035,VALID,0,VALID,22.6686,VALID,351,VALID,0,
2012-03-21, 02:21:04,VALID,1003.69,VALID,0,VALID,95.8035,VALID,0,VALID,22.6686,VALID,350,VALID,0.302734,
2012-03-21, 02:22:04,VALID,1003.73,VALID,0,VALID,95.8035,VALID,0,VALID,22.6898,VALID,347,VALID,0.490625,
2012-03-21, 02:23:04,VALID,1003.8,VALID,0,VALID,95.7806,VALID,0.0815089,VALID,22.6898,VALID,344,VALID,0.0933594,
2012-03-21, 02:24:04,VALID,1003.84,VALID,0,VALID,95.7653,VALID,0,VALID,22.6509,VALID,357,VALID,0.729688,
2012-03-21, 02:25:04,VALID,1003.93,VALID,0,VALID,95.7806,VALID,0,VALID,22.6526,VALID,357,VALID,0.575781,
2012-03-21, 02:26:04,VALID,1004,VALID,0,VALID,95.7806,VALID,0,VALID,22.6332,VALID,352,VALID,0.582422,
2012-03-21, 02:27:04,VALID,1004.06,VALID,0,VALID,95.7959,VALID,0,VALID,22.6332,VALID,347,VALID,0.544531,
2012-03-21, 02:28:04,VALID,1004.13,VALID,0,VALID,95.773,VALID,0,VALID,22.5908,VALID,348,VALID,0.707422,
2012-03-21, 02:29:04,VALID,1004.18,VALID,0,VALID,95.7882,VALID,0,VALID,22.6332,VALID,349,VALID,0.616797,
2012-03-21, 02:30:04,VALID,1004.23,VALID,0,VALID,95.7806,VALID,0,VALID,22.5925,VALID,358,VALID,0.990625,
2012-03-21, 02:31:04,VALID,1004.24,VALID,0,VALID,95.7882,VALID,0,VALID,22.6137,VALID,356,VALID,0.684766,
2012-03-21, 02:32:04,VALID,1004.26,VALID,0,VALID,95.7806,VALID,0,VALID,22.5925,VALID,354,VALID,0.546484,
2012-03-21, 02:33:04,VALID,1004.23,VALID,0,VALID,95.7806,VALID,0,VALID,22.5942,VALID,343,VALID,1.37891,
2012-03-21, 02:34:04,VALID,1004.22,VALID,0,VALID,95.8035,VALID,0,VALID,22.5731,VALID,346,VALID,0.564844,
2012-03-21, 02:35:04,VALID,1004.2,VALID,0,VALID,95.7882,VALID,0,VALID,22.5536,VALID,349,VALID,0.522266,
2012-03-21, 02:36:04,VALID,1004.16,VALID,0,VALID,95.8111,VALID,0,VALID,22.5536,VALID,349,VALID,0.410156,
2012-03-21, 02:37:04,VALID,1004.13,VALID,0,VALID,95.773,VALID,0,VALID,22.5731,VALID,356,VALID,1.09219,
2012-03-21, 02:38:04,VALID,1004.12,VALID,0,VALID,95.7806,VALID,0,VALID,22.5342,VALID,355,VALID,0.473828,
2012-03-21, 02:39:04,VALID,1004.1,VALID,0.5,VALID,95.7653,VALID,0,VALID,22.5553,VALID,352,VALID,0.429297,
2012-03-21, 02:40:04,VALID,1004.05,VALID,0,VALID,95.7806,VALID,0,VALID,22.5342,VALID,15,VALID,0.799609,
2012-03-21, 02:41:04,VALID,1004.06,VALID,0,VALID,95.7806,VALID,0,VALID,22.5553,VALID,349,VALID,0.516406,
2012-03-21, 02:42:04,VALID,1004.03,VALID,0,VALID,95.7959,VALID,0,VALID,22.5359,VALID,345,VALID,0.757422,
2012-03-21, 02:43:04,VALID,1003.99,VALID,0,VALID,95.7882,VALID,0,VALID,22.5342,VALID,344,VALID,0.573047,
2012-03-21, 02:44:04,VALID,1003.96,VALID,0,VALID,95.7806,VALID,0,VALID,22.5147,VALID,352,VALID,0.646094,
2012-03-21, 02:45:04,VALID,1003.94,VALID,0,VALID,95.7959,VALID,0,VALID,22.5147,VALID,357,VALID,0.742969,
2012-03-21, 02:46:04,VALID,1003.93,VALID,0,VALID,95.7882,VALID,0,VALID,22.5147,VALID,345,VALID,0.987891,
2012-03-21, 02:47:04,VALID,1003.92,VALID,0,VALID,95.7806,VALID,0,VALID,22.4953,VALID,345,VALID,1.07031,
2012-03-21, 02:48:04,VALID,1003.89,VALID,0,VALID,95.773,VALID,0,VALID,22.5147,VALID,347,VALID,0.420312,
2012-03-21, 02:49:04,VALID,1003.89,VALID,0,VALID,95.8035,VALID,0,VALID,22.5147,VALID,350,VALID,0.346484,
2012-03-21, 02:50:04,VALID,1003.87,VALID,0,VALID,95.8035,VALID,0,VALID,22.5342,VALID,350,VALID,0.316016,
2012-03-21, 02:51:04,VALID,1003.86,VALID,0,VALID,95.8111,VALID,0,VALID,22.5942,VALID,355,VALID,0.29375,
2012-03-21, 02:52:04,VALID,1003.86,VALID,0,VALID,95.773,VALID,0,VALID,22.5731,VALID,320,VALID,1.1418,
2012-03-21, 02:53:04,VALID,1003.85,VALID,0,VALID,95.7882,VALID,0,VALID,22.5731,VALID,358,VALID,0.633984,
2012-03-21, 02:54:04,VALID,1003.82,VALID,0,VALID,95.7882,VALID,0,VALID,22.5731,VALID,343,VALID,1.24609,
2012-03-21, 02:55:04,VALID,1003.79,VALID,0,VALID,95.8035,VALID,0,VALID,22.5731,VALID,344,VALID,0.388281,
2012-03-21, 02:56:04,VALID,1003.75,VALID,0,VALID,95.7806,VALID,0,VALID,22.5519,VALID,359,VALID,0.864453,
2012-03-21, 02:57:04,VALID,1003.75,VALID,0,VALID,95.7806,VALID,0,VALID,22.5731,VALID,342,VALID,0.741797,
2012-03-21, 02:58:04,VALID,1003.75,VALID,0,VALID,95.7806,VALID,0,VALID,22.5942,VALID,348,VALID,0.920313,
2012-03-21, 02:59:04,VALID,1003.77,VALID,0,VALID,95.7882,VALID,0,VALID,22.5925,VALID,353,VALID,0.512109,
2012-03-21, 03:00:04,VALID,1003.75,VALID,0,VALID,95.7882,VALID,0,VALID,22.6137,VALID,360,VALID,0.548047,
2012-03-21, 03:01:04,VALID,1003.76,VALID,0,VALID,95.8111,VALID,0,VALID,22.5925,VALID,312,VALID,0.456641,
2012-03-21, 03:02:04,VALID,1003.75,VALID,0,VALID,95.7882,VALID,0,VALID,22.5536,VALID,351,VALID,0.579297,
2012-03-21, 03:03:04,VALID,1003.75,VALID,0.5,VALID,95.7959,VALID,0,VALID,22.5731,VALID,348,VALID,0.285547,
2012-03-21, 03:04:04,VALID,1003.73,VALID,0,VALID,95.8035,VALID,0,VALID,22.5942,VALID,348,VALID,0.0175781,
2012-03-21, 03:05:04,VALID,1003.76,VALID,0,VALID,95.7806,VALID,0,VALID,22.5942,VALID,357,VALID,0.955078,
2012-03-21, 03:06:04,VALID,1003.73,VALID,0,VALID,95.7882,VALID,0,VALID,22.5731,VALID,355,VALID,0.738281,
2012-03-21, 03:07:04,VALID,1003.74,VALID,0,VALID,95.773,VALID,0,VALID,22.5714,VALID,354,VALID,0.412109,
2012-03-21, 03:08:04,VALID,1003.72,VALID,0,VALID,95.7959,VALID,0,VALID,22.5925,VALID,353,VALID,0.363281,
2012-03-21, 03:09:04,VALID,1003.74,VALID,0,VALID,95.7501,VALID,0,VALID,22.5748,VALID,346,VALID,0.708594,
2012-03-21, 03:10:04,VALID,1003.74,VALID,0,VALID,95.7959,VALID,0,VALID,22.5536,VALID,297,VALID,0.458203,
2012-03-21, 03:11:04,VALID,1003.77,VALID,0,VALID,95.7882,VALID,0,VALID,22.5731,VALID,352,VALID,0.761719,
2012-03-21, 03:12:04,VALID,1003.77,VALID,0,VALID,95.7653,VALID,0,VALID,22.5536,VALID,336,VALID,0.810156,
2012-03-21, 03:13:04,VALID,1003.73,VALID,0,VALID,95.7806,VALID,0,VALID,22.5748,VALID,1,VALID,0.817578,
2012-03-21, 03:14:04,VALID,1003.73,VALID,0,VALID,95.7806,VALID,0,VALID,22.5731,VALID,351,VALID,0.417188,
2012-03-21, 03:15:04,VALID,1003.71,VALID,0,VALID,95.7577,VALID,0,VALID,22.5748,VALID,4,VALID,0.240625,
2012-03-21, 03:16:04,VALID,1003.72,VALID,0,VALID,95.7882,VALID,0,VALID,22.5553,VALID,359,VALID,0.464063,
2012-03-21, 03:17:04,VALID,1003.74,VALID,0,VALID,95.7653,VALID,0,VALID,22.5342,VALID,329,VALID,0.631641,
2012-03-21, 03:18:04,VALID,1003.75,VALID,0,VALID,95.7577,VALID,0,VALID,22.5342,VALID,333,VALID,0.685547,
2012-03-21, 03:19:04,VALID,1003.77,VALID,0,VALID,95.7882,VALID,0,VALID,22.5359,VALID,350,VALID,0.63125,
2012-03-21, 03:20:04,VALID,1003.76,VALID,0,VALID,95.7653,VALID,0,VALID,22.5164,VALID,345,VALID,0.771875,
2012-03-21, 03:21:04,VALID,1003.76,VALID,0,VALID,95.7653,VALID,0,VALID,22.4758,VALID,349,VALID,0.526172,
2012-03-21, 03:22:04,VALID,1003.76,VALID,0,VALID,95.773,VALID,0,VALID,22.4953,VALID,334,VALID,0.846484,
2012-03-21, 03:23:04,VALID,1003.79,VALID,0,VALID,95.7653,VALID,0,VALID,22.497,VALID,354,VALID,0.548047,
2012-03-21, 03:24:04,VALID,1003.79,VALID,0.5,VALID,95.773,VALID,0,VALID,22.4953,VALID,356,VALID,0.642187,
2012-03-21, 03:25:04,VALID,1003.8,VALID,0,VALID,95.7577,VALID,0,VALID,22.5147,VALID,3,VALID,0.847656,
2012-03-21, 03:26:04,VALID,1003.78,VALID,0,VALID,95.7424,VALID,0.0815089,VALID,22.4953,VALID,350,VALID,1.32695,
2012-03-21, 03:27:04,VALID,1003.75,VALID,0,VALID,95.7272,VALID,0.0815089,VALID,22.4953,VALID,345,VALID,1.54727,
2012-03-21, 03:28:04,VALID,1003.76,VALID,0,VALID,95.7424,VALID,0,VALID,22.4758,VALID,357,VALID,1.51055,
2012-03-21, 03:29:04,VALID,1003.77,VALID,0,VALID,95.7501,VALID,0.0815089,VALID,22.4563,VALID,17,VALID,1.78359,
2012-03-21, 03:30:04,VALID,1003.74,VALID,0,VALID,95.7424,VALID,0.0815089,VALID,22.4563,VALID,6,VALID,0.923828,
2012-03-21, 03:31:04,VALID,1003.76,VALID,0,VALID,95.7196,VALID,0,VALID,22.4369,VALID,355,VALID,1.5543,
2012-03-21, 03:32:04,VALID,1003.74,VALID,0,VALID,95.7043,VALID,0,VALID,22.4369,VALID,348,VALID,0.65625,
2012-03-21, 03:33:04,VALID,1003.68,VALID,0,VALID,95.7119,VALID,0.0815089,VALID,22.4352,VALID,1,VALID,0.712891,
2012-03-21, 03:34:04,VALID,1003.67,VALID,0,VALID,95.6738,VALID,0,VALID,22.4157,VALID,4,VALID,1.65625,
2012-03-21, 03:35:04,VALID,1003.68,VALID,0,VALID,95.6814,VALID,0.0815089,VALID,22.4157,VALID,347,VALID,1.24727,
2012-03-21, 03:36:04,VALID,1003.64,VALID,0,VALID,95.6738,VALID,0.0815089,VALID,22.4369,VALID,355,VALID,1.44141,
2012-03-21, 03:37:04,VALID,1003.61,VALID,0,VALID,95.6738,VALID,0.0815089,VALID,22.4369,VALID,344,VALID,0.680078,
2012-03-21, 03:38:04,VALID,1003.62,VALID,0,VALID,95.6585,VALID,0.0815089,VALID,22.4369,VALID,339,VALID,0.853516,
2012-03-21, 03:39:04,VALID,1003.57,VALID,0,VALID,95.6662,VALID,0.0815089,VALID,22.4157,VALID,346,VALID,0.779688,
2012-03-21, 03:40:04,VALID,1003.55,VALID,0,VALID,95.6585,VALID,0,VALID,22.4369,VALID,326,VALID,0.736719,
2012-03-21, 03:41:04,VALID,1003.59,VALID,0.5,VALID,95.6585,VALID,0,VALID,22.497,VALID,339,VALID,0.237891,
2012-03-21, 03:42:04,VALID,1003.57,VALID,0,VALID,95.6738,VALID,0,VALID,22.4758,VALID,347,VALID,1.00508,